Location: Aurora Center
(43.5271°N, 98.5894°W)
Time: 06:04:34
(UTC-05:00)

Transit 4A - Visible Passes

Search period start: 19 July 2024 00:00
Search period end: 29 July 2024 00:00
Orbit: 870 x 973 km, 66.8° (Epoch: 19 July)

Date Brightness Start Highest point End Pass type
(mag) Time Alt. Az. Time Alt. Az. Time Alt. Az.
19 Jul 10.1 00:36:43 10° N 00:40:43 18° NE 00:44:45 10° ENE visible
19 Jul 8.0 02:22:02 10° NNW 02:28:04 75° ENE 02:30:33 38° SE visible
19 Jul 9.2 04:09:39 10° WNW 04:13:46 19° WSW 04:13:58 19° WSW visible
20 Jul 9.8 00:45:23 10° N 00:50:07 23° NE 00:54:55 10° E visible
20 Jul 7.8 02:31:02 10° NNW 02:37:05 78° WSW 02:38:29 55° S visible
20 Jul 9.7 04:20:09 10° W 04:21:54 12° W 04:21:54 12° W visible
21 Jul 9.3 00:54:07 10° NNW 00:59:25 31° NE 01:03:06 18° E visible
21 Jul 8.0 02:40:10 10° NW 02:46:03 54° WSW 02:46:32 53° SW visible
21 Jul 10.3 23:18:28 10° N 23:20:37 12° NNE 23:22:47 10° NE visible
22 Jul 8.8 01:02:57 10° NNW 01:08:39 42° NE 01:11:15 28° E visible
22 Jul 8.5 02:49:25 10° NW 02:54:42 37° WSW 02:54:42 37° WSW visible
22 Jul 10.2 23:26:47 10° N 23:30:10 15° NNE 23:33:34 10° ENE visible
23 Jul 8.2 01:11:50 10° NNW 01:17:48 59° NE 01:19:29 44° ESE visible
23 Jul 9.1 02:58:53 10° NW 03:02:57 25° W 03:02:57 25° W visible
23 Jul 9.9 23:35:21 10° N 23:39:37 20° NE 23:43:56 10° E visible
24 Jul 7.8 01:20:47 10° NNW 01:26:52 82° ENE 01:27:48 65° SE visible
24 Jul 9.7 03:08:43 10° WNW 03:11:15 16° W 03:11:15 16° W visible
24 Jul 9.5 23:44:03 10° NNW 23:48:59 26° NE 23:52:43 15° E visible
25 Jul 7.8 01:29:50 10° NW 01:35:51 71° WSW 01:36:10 69° SW visible
25 Jul 10.4 22:09:27 10° NNE 22:09:58 10° NNE 22:10:29 10° NNE visible
25 Jul 9.0 23:52:49 10° NNW 23:58:16 34° NE 00:01:07 23° E visible
26 Jul 8.3 01:38:59 10° NW 01:44:35 48° WSW 01:44:35 48° WSW visible
26 Jul 10.1 22:16:57 10° N 22:19:33 13° NNE 22:22:11 10° NE visible
27 Jul 8.5 00:01:39 10° NNW 00:07:28 46° NE 00:09:36 34° E visible
27 Jul 8.9 01:48:17 10° NW 01:53:04 33° W 01:53:04 33° W visible
27 Jul 10.0 22:25:23 10° N 22:29:04 16° NE 22:32:48 10° ENE visible
28 Jul 8.0 00:10:34 10° NNW 00:16:35 65° NE 00:18:07 49° ESE visible
28 Jul 9.4 01:57:49 10° WNW 02:01:35 22° W 02:01:35 22° W visible
28 Jul 9.6 22:34:00 10° N 22:38:30 21° NE 22:43:03 10° E visible
